View from above orbital plane
|
View from above satellite
|
Ground track
|
The orbit data is extracted from the following two-line orbital elements,
1 29517U 06048B 21017.08409341 .00000508 00000-0 15191-3 0 9995
2 29517 28.3423 260.7184 4215899 2.9530 358.9244 6.87603211257499
Epoch (UTC): | 17 January 2021 02:01:05 |
Eccentricity: | 0.4215899 |
inclination: | 28.3423° |
perigee height: | 379 km |
apogee height: | 10228 km |
right ascension of ascending node: | 260.7184° |
argument of perigee: | 2.9530° |
revolutions per day: | 6.87603211 |
mean anomaly at epoch: | 358.9244° |
orbit number at epoch: | 25749 |
The dashed part of the orbit path shows where the satellite is in the earth's shadow,
|
|